CW1490 Weather Reports


Display with metric or nautical units.
time (UTC)temp
F
wind
direction
speed
MPH
gust
MPH
rain 1hr
in
rain 24hr
in
rain mn
in
humidity
%
barometer
mb
20140828010717 70 262 2.0 3.0 0.00 0.00 0.00 92 1011.2
20140828005215 70 262 1.0 3.0 0.00 0.00 0.00 91 1011.3
20140828003712 71 272 2.0 4.0 0.00 0.00 0.00 90 1011.2
20140828002209 72 248 0.0 3.0 0.00 0.00 0.00 89 1010.9
20140828000706 73 247 0.0 4.0 0.00 0.00 0.00 88 1010.7
20140827235205 74 322 1.0 4.0 0.00 0.00 0.00 87 1010.4
20140827233658 75 251 1.0 3.0 0.00 0.00 0.00 86 1010.1
20140827232153 77 217 1.0 2.0 0.00 0.00 0.00 85 1010.2
20140827230650 78 212 1.0 2.0 0.00 0.00 0.00 81 1010.2
20140827225146 80 212 0.0 3.0 0.00 0.00 0.00 80 1010.2
20140827223642 81 212 1.0 3.0 0.00 0.00 0.00 77 1010.0
20140827222140 82 213 0.0 2.0 0.00 0.00 0.00 72 1009.9
20140827220638 84 176 0.0 3.0 0.00 0.00 0.00 67 1010.1
20140827215138 85 184 2.0 4.0 0.00 0.00 0.00 68 1010.0
20140827213638 85 233 1.0 5.0 0.00 0.00 0.00 63 1010.0
20140827212136 86 285 1.0 6.0 0.00 0.00 0.00 61 1010.1
20140827210834 86 233 2.0 4.0 0.00 0.00 0.00 63 1010.2
20140827205131 85 299 1.0 8.0 0.00 0.00 0.00 65 1010.2
20140827203631 84 253 2.0 7.0 0.00 0.00 0.00 69 1010.3
20140827202130 84 294 0.0 2.0 0.00 0.00 0.00 68 1010.3
20140827200629 84 281 2.0 6.0 0.00 0.00 0.00 67 1010.2
20140827195128 85 282 0.0 3.0 0.00 0.00 0.00 70 1010.2
20140827193627 85 306 1.0 5.0 0.00 0.00 0.00 69 1010.4
20140827192125 85 265 0.0 3.0 0.00 0.00 0.00 69 1010.4
20140827190623 85 239 1.0 8.0 0.00 0.00 0.00 69 1010.6
20140827185121 83 305 1.0 3.0 0.00 0.00 0.00 75 1010.7
20140827183618 83 230 1.0 7.0 0.00 0.00 0.00 74 1011.0
20140827182117 83 240 3.0 7.0 0.00 0.00 0.00 70 1011.1
20140827180614 83 197 4.0 11.0 0.00 0.00 0.00 71 1011.3
20140827175114 83 247 4.0 8.0 0.00 0.00 0.00 70 1011.4
20140827173610 83 253 6.0 10.0 0.00 0.00 0.00 71 1011.5
20140827172106 81 168 3.0 9.0 0.00 0.00 0.00 77 1012.0
20140827170703 80 199 3.0 9.0 0.00 0.00 0.00 76 1012.1
20140827165102 79 233 3.0 10.0 0.00 0.00 0.00 76 1012.2
20140827163600 79 241 3.0 8.0 0.00 0.00 0.00 76 1012.4
20140827162058 79 203 3.0 7.0 0.00 0.00 0.00 76 1012.6
20140827160555 79 220 3.0 8.0 0.00 0.00 0.00 75 1012.8
20140827155055 79 217 3.0 8.0 0.00 0.00 0.00 73 1012.9
20140827153555 80 206 5.0 10.0 0.00 0.00 0.00 71 1012.9
20140827152052 80 197 3.0 7.0 0.00 0.00 0.00 75 1013.2
20140827150549 79 204 4.0 6.0 0.00 0.00 0.00 73 1013.5
20140827145047 79 206 3.0 8.0 0.00 0.00 0.00 73 1013.5
20140827143547 79 224 4.0 11.0 0.00 0.00 0.00 71 1013.6
20140827142047 78 237 5.0 8.0 0.00 0.00 0.00 74 1013.6
20140827140542 76 174 4.0 7.0 0.00 0.00 0.00 79 1013.6
20140827135240 75 230 3.0 10.0 0.00 0.00 0.00 79 1013.6
20140827133538 75 240 4.0 8.0 0.00 0.00 0.00 80 1013.6
20140827132037 73 219 3.0 8.0 0.00 0.00 0.00 83 1013.6
20140827130533 72 211 3.0 6.0 0.00 0.00 0.00 87 1013.7
20140827125030 70 212 4.0 6.0 0.00 0.00 0.00 92 1013.9
20140827123526 68 278 2.0 6.0 0.00 0.00 0.00 96 1014.2
20140827122023 67 139 1.0 6.0 0.00 0.00 0.00 97 1014.3
20140827120522 66 192 1.0 5.0 0.00 0.00 0.00 98 1014.5
20140827115017 65 230 2.0 4.0 0.00 0.00 0.00 98 1014.4
20140827113515 64 257 4.0 8.0 0.00 0.00 0.00 98 1014.5
20140827112012 63 203 3.0 6.0 0.00 0.01 0.00 98 1014.4
20140827110509 62 224 2.0 4.0 0.00 0.01 0.00 97 1014.6
20140827105008 61 188 1.0 4.0 0.00 0.01 0.00 97 1014.5
20140827103507 61 271 2.0 3.0 0.00 0.01 0.00 97 1014.5
20140827102007 61 41 0.0 4.0 0.00 0.01 0.00 97 1014.7
20140827100505 61 305 0.0 2.0 0.00 0.01 0.00 97 1014.6
20140827095005 61 305 0.0 2.0 0.00 0.01 0.00 97 1014.7
20140827093504 61 306 0.0 0.0 0.00 0.01 0.00 97 1014.7
20140827092004 61 305 0.0 2.0 0.00 0.01 0.00 97 1014.5
20140827090502 61 305 1.0 3.0 0.00 0.01 0.00 97 1014.5
20140827085006 61 238 1.0 2.0 0.00 0.01 0.00 97 1014.4
20140827083501 62 237 2.0 5.0 0.00 0.01 0.00 97 1014.5
20140827081959 61 233 3.0 4.0 0.00 0.01 0.00 97 1014.5
20140827080459 62 219 1.0 3.0 0.00 0.01 0.00 96 1014.6
20140827074957 62 211 0.0 2.0 0.00 0.01 0.00 97 1014.6
20140827073456 62 211 0.0 4.0 0.00 0.01 0.00 97 1014.7
20140827071955 61 205 0.0 3.0 0.00 0.01 0.00 96 1014.8
20140827070454 61 209 2.0 4.0 0.00 0.01 0.00 96 1014.9
20140827064953 62 230 0.0 4.0 0.00 0.01 0.00 96 1014.9
20140827063552 61 238 2.0 7.0 0.00 0.01 0.00 96 1015.0
20140827061950 61 205 2.0 4.0 0.00 0.01 0.00 95 1015.1
20140827060448 61 253 1.0 2.0 0.00 0.01 0.00 95 1015.3
20140827054947 61 253 0.0 4.0 0.00 0.01 0.00 95 1015.3
20140827053445 61 255 0.0 2.0 0.00 0.01 0.00 95 1015.4
20140827051943 62 255 0.0 2.0 0.00 0.01 0.00 95 1015.5
20140827050441 62 255 1.0 2.0 0.00 0.01 0.00 95 1015.5
20140827044939 62 255 0.0 2.0 0.00 0.01 0.00 95 1015.6
20140827043439 63 255 1.0 4.0 0.00 0.01 0.00 96 1015.5
20140827041936 62 236 3.0 6.0 0.00 0.01 0.00 95 1015.7
20140827040434 62 287 1.0 2.0 0.00 0.01 0.00 95 1016.0
20140827034933 63 287 0.0 2.0 0.00 0.01 0.00 94 1016.1
20140827033432 63 287 0.0 2.0 0.00 0.01 0.00 94 1016.1
20140827031930 63 288 0.0 2.0 0.00 0.01 0.00 94 1016.0
20140827030429 64 288 0.0 3.0 0.00 0.01 0.00 94 1016.1
20140827024928 64 230 0.0 0.0 0.00 0.01 0.00 94 1016.2
20140827023426 64 230 0.0 2.0 0.00 0.01 0.00 93 1016.0
20140827021925 64 230 0.0 2.0 0.00 0.01 0.00 93 1016.1
20140827020423 65 230 0.0 2.0 0.00 0.01 0.00 93 1015.9
20140827014921 65 230 0.0 3.0 0.00 0.01 0.00 92 1016.0
20140827013418 66 230 1.0 2.0 0.00 0.01 0.00 92 1016.1
20140827011916 66 230 0.0 3.0 0.00 0.01 0.00 92 1016.1